Time,TemperatureF,DewpointF,PressureIn,WindDirection,WindDirectionDegrees,WindSpeedMPH,WindSpeedGustMPH,Humidity,HourlyPrecipIn,Conditions,Clouds,dailyrainin,SoftwareType,DateUTC
2013-09-11 00:01:00,83.0,65.7,29.23,South,177,0.0,0.0,56,0.00,,---,0.00,VWS V14.00,2013-09-11 05:01:00,
2013-09-11 00:04:00,83.0,65.7,29.23,South,177,0.0,0.0,56,0.00,,---,0.00,VWS V14.00,2013-09-11 05:04:00,
2013-09-11 00:07:00,83.0,65.7,29.23,South,177,0.0,0.0,56,0.00,,---,0.00,VWS V14.00,2013-09-11 05:07:00,
2013-09-11 00:10:00,83.0,65.7,29.23,South,177,0.0,0.0,56,0.00,,---,0.00,VWS V14.00,2013-09-11 05:10:00,
2013-09-11 00:16:00,81.4,66.7,29.23,South,177,0.0,0.0,61,0.00,,---,0.00,VWS V14.00,2013-09-11 05:16:00,
2013-09-11 00:19:00,81.4,66.7,29.23,South,177,0.0,0.0,61,0.00,,---,0.00,VWS V14.00,2013-09-11 05:19:00,
2013-09-11 00:22:00,81.4,66.7,29.23,South,177,0.0,0.0,61,0.00,,---,0.00,VWS V14.00,2013-09-11 05:22:00,
2013-09-11 00:25:00,81.4,66.7,29.23,South,177,0.0,0.0,61,0.00,,---,0.00,VWS V14.00,2013-09-11 05:25:00,
2013-09-11 00:28:00,81.4,66.7,29.23,South,177,0.0,0.0,61,0.00,,---,0.00,VWS V14.00,2013-09-11 05:28:00,
2013-09-11 00:32:00,81.4,66.7,29.23,South,177,0.0,0.0,61,0.00,,---,0.00,VWS V14.00,2013-09-11 05:32:00,
2013-09-11 00:34:00,81.4,66.7,29.23,South,177,0.0,0.0,61,0.00,,---,0.00,VWS V14.00,2013-09-11 05:34:00,
2013-09-11 00:37:00,81.4,66.7,29.23,South,177,0.0,0.0,61,0.00,,---,0.00,VWS V14.00,2013-09-11 05:37:00,
2013-09-11 00:40:00,81.4,66.7,29.23,South,177,0.0,0.0,61,0.00,,---,0.00,VWS V14.00,2013-09-11 05:40:00,
2013-09-11 00:46:00,81.0,66.8,29.23,South,177,0.0,0.0,62,0.00,,---,0.00,VWS V14.00,2013-09-11 05:46:00,
2013-09-11 00:47:00,81.0,66.8,29.23,South,177,0.0,0.0,62,0.00,,---,0.00,VWS V14.00,2013-09-11 05:47:00,
2013-09-11 00:52:00,81.0,66.8,29.23,South,177,0.0,0.0,62,0.00,,---,0.00,VWS V14.00,2013-09-11 05:52:00,
2013-09-11 00:58:00,80.8,66.6,29.23,South,177,0.0,0.0,62,0.00,,---,0.00,VWS V14.00,2013-09-11 05:58:00,
2013-09-11 01:02:00,80.8,66.6,29.23,South,177,0.0,0.0,62,0.00,,---,0.00,VWS V14.00,2013-09-11 06:02:00,
2013-09-11 01:05:00,80.8,66.6,29.23,South,177,0.0,0.0,62,0.00,,---,0.00,VWS V14.00,2013-09-11 06:05:00,
2013-09-11 01:11:00,80.8,66.6,29.23,South,177,0.0,0.0,62,0.00,,---,0.00,VWS V14.00,2013-09-11 06:11:00,
2013-09-11 01:17:00,80.8,66.6,29.23,South,177,0.0,0.0,62,0.00,,---,0.00,VWS V14.00,2013-09-11 06:17:00,
2013-09-11 01:20:00,80.8,66.6,29.23,South,177,0.0,0.0,62,0.00,,---,0.00,VWS V14.00,2013-09-11 06:20:00,
2013-09-11 01:23:00,80.8,66.6,29.23,South,177,0.0,0.0,62,0.00,,---,0.00,VWS V14.00,2013-09-11 06:23:00,
2013-09-11 01:26:00,80.8,66.6,29.23,South,177,0.0,0.0,62,0.00,,---,0.00,VWS V14.00,2013-09-11 06:26:00,
2013-09-11 01:29:00,80.5,66.3,29.23,South,177,0.0,0.0,62,0.00,,---,0.00,VWS V14.00,2013-09-11 06:29:00,
2013-09-11 01:32:00,80.5,66.3,29.23,South,177,0.0,0.0,62,0.00,,---,0.00,VWS V14.00,2013-09-11 06:32:00,
2013-09-11 01:38:00,80.3,66.6,29.23,South,177,0.0,0.0,63,0.00,,---,0.00,VWS V14.00,2013-09-11 06:38:00,
2013-09-11 01:44:00,80.3,66.6,29.23,South,177,0.0,0.0,63,0.00,,---,0.00,VWS V14.00,2013-09-11 06:44:00,
2013-09-11 01:47:00,80.3,66.6,29.23,South,177,0.0,0.0,63,0.00,,---,0.00,VWS V14.00,2013-09-11 06:47:00,
2013-09-11 01:50:00,80.3,66.6,29.23,South,177,0.0,0.0,63,0.00,,---,0.00,VWS V14.00,2013-09-11 06:50:00,
2013-09-11 01:53:00,80.3,66.6,29.23,South,177,0.0,0.0,63,0.00,,---,0.00,VWS V14.00,2013-09-11 06:53:00,
2013-09-11 01:59:00,80.3,66.6,29.23,South,177,0.0,0.0,63,0.00,,---,0.00,VWS V14.00,2013-09-11 06:59:00,
2013-09-11 02:02:00,80.3,66.6,29.23,South,177,0.0,0.0,63,0.00,,---,0.00,VWS V14.00,2013-09-11 07:02:00,
2013-09-11 02:05:00,79.9,66.2,29.23,South,177,0.0,0.0,63,0.00,,---,0.00,VWS V14.00,2013-09-11 07:05:00,
2013-09-11 02:08:00,79.9,66.2,29.23,South,177,0.0,0.0,63,0.00,,---,0.00,VWS V14.00,2013-09-11 07:08:00,
2013-09-11 02:14:00,79.8,66.1,29.23,South,177,0.0,0.0,63,0.00,,---,0.00,VWS V14.00,2013-09-11 07:14:00,
2013-09-11 02:17:00,79.8,66.1,29.23,South,177,0.0,0.0,63,0.00,,---,0.00,VWS V14.00,2013-09-11 07:17:00,
2013-09-11 02:23:00,79.8,66.1,29.21,South,177,0.0,0.0,63,0.00,,---,0.00,VWS V14.00,2013-09-11 07:23:00,
2013-09-11 02:26:00,79.8,66.1,29.21,South,177,0.0,0.0,63,0.00,,---,0.00,VWS V14.00,2013-09-11 07:26:00,
2013-09-11 02:29:00,79.6,65.9,29.21,South,177,0.0,0.0,63,0.00,,---,0.00,VWS V14.00,2013-09-11 07:29:00,
2013-09-11 02:32:00,79.6,65.9,29.21,South,177,0.0,0.0,63,0.00,,---,0.00,VWS V14.00,2013-09-11 07:32:00,
2013-09-11 02:38:00,79.4,66.2,29.23,South,177,0.0,0.0,64,0.00,,---,0.00,VWS V14.00,2013-09-11 07:38:00,
2013-09-11 02:41:00,79.4,66.2,29.23,South,177,0.0,0.0,64,0.00,,---,0.00,VWS V14.00,2013-09-11 07:41:00,
2013-09-11 02:44:00,79.4,66.2,29.23,South,177,0.0,0.0,64,0.00,,---,0.00,VWS V14.00,2013-09-11 07:44:00,
2013-09-11 02:47:00,79.4,66.2,29.23,South,177,0.0,0.0,64,0.00,,---,0.00,VWS V14.00,2013-09-11 07:47:00,
2013-09-11 02:53:00,79.2,66.0,29.23,South,177,0.0,0.0,64,0.00,,---,0.00,VWS V14.00,2013-09-11 07:53:00,
2013-09-11 02:56:00,79.2,66.0,29.23,South,177,0.0,0.0,64,0.00,,---,0.00,VWS V14.00,2013-09-11 07:56:00,
2013-09-11 02:59:00,79.2,66.0,29.23,South,177,0.0,0.0,64,0.00,,---,0.00,VWS V14.00,2013-09-11 07:59:00,
2013-09-11 03:02:00,79.0,65.8,29.23,South,177,0.0,0.0,64,0.00,,---,0.00,VWS V14.00,2013-09-11 08:02:00,
2013-09-11 03:05:00,79.0,65.8,29.23,South,177,0.0,0.0,64,0.00,,---,0.00,VWS V14.00,2013-09-11 08:05:00,
2013-09-11 03:08:00,79.0,65.8,29.23,South,177,0.0,0.0,64,0.00,,---,0.00,VWS V14.00,2013-09-11 08:08:00,
2013-09-11 03:11:00,78.9,65.7,29.23,South,177,0.0,0.0,64,0.00,,---,0.00,VWS V14.00,2013-09-11 08:11:00,
2013-09-11 03:17:00,78.9,65.7,29.23,South,177,0.0,0.0,64,0.00,,---,0.00,VWS V14.00,2013-09-11 08:17:00,
2013-09-11 03:20:00,78.9,65.7,29.23,South,177,0.0,0.0,64,0.00,,---,0.00,VWS V14.00,2013-09-11 08:20:00,
2013-09-11 03:23:00,78.9,65.7,29.23,South,177,0.0,0.0,64,0.00,,---,0.00,VWS V14.00,2013-09-11 08:23:00,
2013-09-11 03:26:00,78.7,65.9,29.23,South,177,0.0,0.0,65,0.00,,---,0.00,VWS V14.00,2013-09-11 08:26:00,
2013-09-11 03:32:00,78.7,65.9,29.23,South,177,0.0,0.0,65,0.00,,---,0.00,VWS V14.00,2013-09-11 08:32:00,
2013-09-11 03:38:00,78.5,65.8,29.23,South,177,0.0,0.0,65,0.00,,---,0.00,VWS V14.00,2013-09-11 08:38:00,
2013-09-11 03:44:00,78.3,65.6,29.23,South,177,0.0,0.0,65,0.00,,---,0.00,VWS V14.00,2013-09-11 08:44:00,
2013-09-11 03:50:00,78.3,65.6,29.23,South,177,0.0,0.0,65,0.00,,---,0.00,VWS V14.00,2013-09-11 08:50:00,
2013-09-11 03:56:00,78.3,65.6,29.23,South,177,0.0,0.0,65,0.00,,---,0.00,VWS V14.00,2013-09-11 08:56:00,
2013-09-11 03:59:00,78.3,65.6,29.23,South,177,0.0,0.0,65,0.00,,---,0.00,VWS V14.00,2013-09-11 08:59:00,
2013-09-11 04:02:00,78.3,65.6,29.23,South,177,0.0,0.0,65,0.00,,---,0.00,VWS V14.00,2013-09-11 09:02:00,
2013-09-11 04:05:00,78.3,65.6,29.23,South,177,0.0,0.0,65,0.00,,---,0.00,VWS V14.00,2013-09-11 09:05:00,
2013-09-11 04:08:00,78.1,65.0,29.23,South,177,0.0,0.0,64,0.00,,---,0.00,VWS V14.00,2013-09-11 09:08:00,
2013-09-11 04:11:00,78.1,65.0,29.23,South,177,0.0,0.0,64,0.00,,---,0.00,VWS V14.00,2013-09-11 09:11:00,
2013-09-11 04:14:00,78.1,65.0,29.23,South,177,0.0,0.0,64,0.00,,---,0.00,VWS V14.00,2013-09-11 09:14:00,
2013-09-11 04:17:00,78.0,64.8,29.23,South,177,0.0,0.0,64,0.00,,---,0.00,VWS V14.00,2013-09-11 09:17:00,
2013-09-11 04:20:00,78.0,64.8,29.23,South,177,0.0,0.0,64,0.00,,---,0.00,VWS V14.00,2013-09-11 09:20:00,
2013-09-11 04:23:00,78.0,64.8,29.23,South,177,0.0,0.0,64,0.00,,---,0.00,VWS V14.00,2013-09-11 09:23:00,
2013-09-11 04:26:00,78.0,64.8,29.23,South,177,0.0,0.0,64,0.00,,---,0.00,VWS V14.00,2013-09-11 09:26:00,
2013-09-11 04:29:00,78.0,64.8,29.23,South,177,0.0,0.0,64,0.00,,---,0.00,VWS V14.00,2013-09-11 09:29:00,
2013-09-11 04:32:00,78.0,64.8,29.23,South,177,0.0,0.0,64,0.00,,---,0.00,VWS V14.00,2013-09-11 09:32:00,
2013-09-11 04:35:00,77.8,64.6,29.23,South,177,0.0,0.0,64,0.00,,---,0.00,VWS V14.00,2013-09-11 09:35:00,
2013-09-11 04:38:00,77.8,64.6,29.23,South,177,0.0,0.0,64,0.00,,---,0.00,VWS V14.00,2013-09-11 09:38:00,
2013-09-11 04:44:00,77.8,64.6,29.23,South,177,0.0,0.0,64,0.00,,---,0.00,VWS V14.00,2013-09-11 09:44:00,
2013-09-11 04:47:00,77.8,64.6,29.23,South,177,0.0,0.0,64,0.00,,---,0.00,VWS V14.00,2013-09-11 09:47:00,
2013-09-11 04:50:00,77.6,64.5,29.23,South,177,0.0,0.0,64,0.00,,---,0.00,VWS V14.00,2013-09-11 09:50:00,
2013-09-11 04:53:00,77.6,64.5,29.23,South,177,0.0,0.0,64,0.00,,---,0.00,VWS V14.00,2013-09-11 09:53:00,
2013-09-11 04:59:00,77.4,64.7,29.23,South,177,0.0,0.0,65,0.00,,---,0.00,VWS V14.00,2013-09-11 09:59:00,
2013-09-11 05:02:00,77.4,64.7,29.23,South,177,0.0,0.0,65,0.00,,---,0.00,VWS V14.00,2013-09-11 10:02:00,
2013-09-11 05:05:00,77.4,64.7,29.23,South,177,0.0,0.0,65,0.00,,---,0.00,VWS V14.00,2013-09-11 10:05:00,
2013-09-11 05:08:00,77.4,64.7,29.23,South,177,0.0,0.0,65,0.00,,---,0.00,VWS V14.00,2013-09-11 10:08:00,
2013-09-11 05:11:00,77.4,64.7,29.23,South,177,0.0,0.0,65,0.00,,---,0.00,VWS V14.00,2013-09-11 10:11:00,
2013-09-11 05:14:00,77.2,64.6,29.23,South,177,0.0,0.0,65,0.00,,---,0.00,VWS V14.00,2013-09-11 10:14:00,
2013-09-11 05:17:00,77.2,64.6,29.23,South,177,0.0,0.0,65,0.00,,---,0.00,VWS V14.00,2013-09-11 10:17:00,
2013-09-11 05:20:00,77.2,64.6,29.23,South,177,0.0,0.0,65,0.00,,---,0.00,VWS V14.00,2013-09-11 10:20:00,
2013-09-11 05:23:00,77.2,64.6,29.23,South,177,0.0,0.0,65,0.00,,---,0.00,VWS V14.00,2013-09-11 10:23:00,
2013-09-11 05:26:00,77.2,64.6,29.23,South,177,0.0,0.0,65,0.00,,---,0.00,VWS V14.00,2013-09-11 10:26:00,
2013-09-11 05:32:00,77.2,64.6,29.23,South,177,0.0,0.0,65,0.00,,---,0.00,VWS V14.00,2013-09-11 10:32:00,
2013-09-11 05:38:00,77.1,64.8,29.23,South,177,0.0,0.0,66,0.00,,---,0.00,VWS V14.00,2013-09-11 10:38:00,
2013-09-11 05:44:00,77.1,64.8,29.23,South,177,0.0,0.0,66,0.00,,---,0.00,VWS V14.00,2013-09-11 10:44:00,
2013-09-11 05:47:00,77.1,64.8,29.23,South,177,0.0,0.0,66,0.00,,---,0.00,VWS V14.00,2013-09-11 10:47:00,
2013-09-11 05:50:00,76.9,65.1,29.23,South,177,0.0,0.0,67,0.00,,---,0.00,VWS V14.00,2013-09-11 10:50:00,
2013-09-11 05:53:00,76.9,65.1,29.23,South,177,0.0,0.0,67,0.00,,---,0.00,VWS V14.00,2013-09-11 10:53:00,
2013-09-11 05:56:00,76.9,65.1,29.23,South,177,0.0,0.0,67,0.00,,---,0.00,VWS V14.00,2013-09-11 10:56:00,
2013-09-11 06:00:00,76.9,65.1,29.23,South,177,0.0,0.0,67,0.00,,---,0.00,VWS V14.00,2013-09-11 11:00:00,
2013-09-11 06:02:00,76.9,65.1,29.23,South,177,0.0,0.0,67,0.00,,---,0.00,VWS V14.00,2013-09-11 11:02:00,
2013-09-11 06:03:00,76.9,65.1,29.23,South,177,0.0,0.0,67,0.00,,---,0.00,VWS V14.00,2013-09-11 11:03:00,
2013-09-11 06:06:00,76.9,65.1,29.23,South,177,0.0,0.0,67,0.00,,---,0.00,VWS V14.00,2013-09-11 11:06:00,
2013-09-11 06:12:00,76.9,65.5,29.23,South,177,0.0,0.0,68,0.00,,---,0.00,VWS V14.00,2013-09-11 11:12:00,
2013-09-11 06:15:00,76.7,64.9,29.23,South,177,0.0,0.0,67,0.00,,---,0.00,VWS V14.00,2013-09-11 11:15:00,
2013-09-11 06:17:00,76.7,64.9,29.23,South,177,0.0,0.0,67,0.00,,---,0.00,VWS V14.00,2013-09-11 11:17:00,
2013-09-11 06:18:00,76.7,64.9,29.23,South,177,0.0,0.0,67,0.00,,---,0.00,VWS V14.00,2013-09-11 11:18:00,
2013-09-11 06:24:00,76.7,64.9,29.23,South,177,0.0,0.0,67,0.00,,---,0.00,VWS V14.00,2013-09-11 11:24:00,
2013-09-11 06:27:00,76.7,64.9,29.23,South,177,0.0,0.0,67,0.00,,---,0.00,VWS V14.00,2013-09-11 11:27:00,
2013-09-11 06:30:00,76.7,65.3,29.23,South,177,0.0,0.0,68,0.00,,---,0.00,VWS V14.00,2013-09-11 11:30:00,
2013-09-11 06:36:00,76.5,65.2,29.23,South,177,0.0,0.0,68,0.00,,---,0.00,VWS V14.00,2013-09-11 11:36:00,
2013-09-11 06:39:00,76.5,65.2,29.23,South,177,0.0,0.0,68,0.00,,---,0.00,VWS V14.00,2013-09-11 11:39:00,
2013-09-11 06:42:00,76.5,65.2,29.23,South,177,0.0,0.0,68,0.00,,---,0.00,VWS V14.00,2013-09-11 11:42:00,
2013-09-11 06:45:00,76.5,65.2,29.26,South,177,0.0,0.0,68,0.00,,---,0.00,VWS V14.00,2013-09-11 11:45:00,
2013-09-11 06:47:00,76.5,65.2,29.26,South,177,0.0,0.0,68,0.00,,---,0.00,VWS V14.00,2013-09-11 11:47:00,
2013-09-11 06:48:00,76.3,65.0,29.26,South,177,0.0,0.0,68,0.00,,---,0.00,VWS V14.00,2013-09-11 11:48:00,
2013-09-11 06:51:00,76.3,65.0,29.26,South,177,0.0,0.0,68,0.00,,---,0.00,VWS V14.00,2013-09-11 11:51:00,
2013-09-11 06:54:00,76.3,65.0,29.26,South,177,0.0,0.0,68,0.00,,---,0.00,VWS V14.00,2013-09-11 11:54:00,
2013-09-11 07:00:00,76.3,65.0,29.26,South,177,0.0,0.0,68,0.00,,---,0.00,VWS V14.00,2013-09-11 12:00:00,
2013-09-11 07:03:00,76.3,65.0,29.26,South,177,0.0,0.0,68,0.00,,---,0.00,VWS V14.00,2013-09-11 12:03:00,
2013-09-11 07:06:00,76.3,65.0,29.26,South,177,0.0,0.0,68,0.00,,---,0.00,VWS V14.00,2013-09-11 12:06:00,
2013-09-11 07:12:00,76.2,64.8,29.26,South,177,0.0,0.0,68,0.00,,---,0.00,VWS V14.00,2013-09-11 12:12:00,
2013-09-11 07:15:00,76.2,64.8,29.26,South,177,0.0,0.0,68,0.00,,---,0.00,VWS V14.00,2013-09-11 12:15:00,
2013-09-11 07:17:00,76.2,65.3,29.26,South,177,0.0,0.0,69,0.00,,---,0.00,VWS V14.00,2013-09-11 12:17:00,
2013-09-11 07:18:00,76.2,65.3,29.26,South,177,0.0,0.0,69,0.00,,---,0.00,VWS V14.00,2013-09-11 12:18:00,
2013-09-11 07:21:00,76.2,65.3,29.26,South,177,0.0,0.0,69,0.00,,---,0.00,VWS V14.00,2013-09-11 12:21:00,
2013-09-11 07:24:00,76.2,65.3,29.26,South,177,0.0,0.0,69,0.00,,---,0.00,VWS V14.00,2013-09-11 12:24:00,
2013-09-11 07:27:00,76.0,65.1,29.26,South,177,0.0,0.0,69,0.00,,---,0.00,VWS V14.00,2013-09-11 12:27:00,
2013-09-11 07:32:00,76.0,65.1,29.26,South,177,0.0,0.0,69,0.00,,---,0.00,VWS V14.00,2013-09-11 12:32:00,
2013-09-11 07:33:00,76.0,65.1,29.26,South,177,0.0,0.0,69,0.00,,---,0.00,VWS V14.00,2013-09-11 12:33:00,
2013-09-11 07:36:00,76.2,65.3,29.26,South,177,0.0,0.0,69,0.00,,---,0.00,VWS V14.00,2013-09-11 12:36:00,
2013-09-11 07:42:00,76.3,65.4,29.26,South,177,0.0,0.0,69,0.00,,---,0.00,VWS V14.00,2013-09-11 12:42:00,
2013-09-11 07:45:00,76.3,65.4,29.26,South,177,0.0,0.0,69,0.00,,---,0.00,VWS V14.00,2013-09-11 12:45:00,
2013-09-11 07:48:00,76.3,65.4,29.26,South,177,0.0,0.0,69,0.00,,---,0.00,VWS V14.00,2013-09-11 12:48:00,
2013-09-11 07:54:00,76.3,65.4,29.26,South,177,0.0,0.0,69,0.00,,---,0.00,VWS V14.00,2013-09-11 12:54:00,
2013-09-11 07:57:00,76.3,65.4,29.26,South,177,0.0,0.0,69,0.00,,---,0.00,VWS V14.00,2013-09-11 12:57:00,
2013-09-11 08:00:00,76.9,65.9,29.26,South,177,0.0,0.0,69,0.00,,---,0.00,VWS V14.00,2013-09-11 13:00:00,
2013-09-11 08:02:00,76.9,65.9,29.26,South,177,0.0,0.0,69,0.00,,---,0.00,VWS V14.00,2013-09-11 13:02:00,
2013-09-11 08:09:00,77.6,66.2,29.26,South,177,0.0,0.0,68,0.00,,---,0.00,VWS V14.00,2013-09-11 13:09:00,
2013-09-11 08:12:00,78.0,66.6,29.26,South,177,0.0,0.0,68,0.00,,---,0.00,VWS V14.00,2013-09-11 13:12:00,
2013-09-11 08:17:00,78.3,66.9,29.26,South,177,0.0,0.0,68,0.00,,---,0.00,VWS V14.00,2013-09-11 13:17:00,
2013-09-11 08:21:00,78.3,66.9,29.26,South,177,0.0,0.0,68,0.00,,---,0.00,VWS V14.00,2013-09-11 13:21:00,
2013-09-11 08:27:00,79.0,67.6,29.26,South,177,0.0,0.0,68,0.00,,---,0.00,VWS V14.00,2013-09-11 13:27:00,
2013-09-11 08:30:00,79.0,67.6,29.26,South,177,0.0,0.0,68,0.00,,---,0.00,VWS V14.00,2013-09-11 13:30:00,
2013-09-11 08:33:00,80.1,68.2,29.26,South,177,0.0,0.0,67,0.00,,---,0.00,VWS V14.00,2013-09-11 13:33:00,
2013-09-11 08:39:00,80.1,68.2,29.26,South,177,0.0,0.0,67,0.00,,---,0.00,VWS V14.00,2013-09-11 13:39:00,
2013-09-11 08:42:00,81.6,69.1,29.26,South,177,0.0,0.0,66,0.00,,---,0.00,VWS V14.00,2013-09-11 13:42:00,
2013-09-11 08:45:00,81.6,69.1,29.26,South,177,0.0,0.0,66,0.00,,---,0.00,VWS V14.00,2013-09-11 13:45:00,
2013-09-11 08:47:00,82.1,69.6,29.26,South,185,0.0,0.0,66,0.00,,---,0.00,VWS V14.00,2013-09-11 13:47:00,
2013-09-11 08:48:00,82.1,69.6,29.26,South,173,3.1,3.1,66,0.00,,---,0.00,VWS V14.00,2013-09-11 13:48:00,
2013-09-11 08:54:00,82.5,69.5,29.26,South,169,3.1,3.1,65,0.00,,---,0.00,VWS V14.00,2013-09-11 13:54:00,
2013-09-11 09:00:00,83.7,70.3,29.26,South,169,3.1,3.1,64,0.00,,---,0.00,VWS V14.00,2013-09-11 14:00:00,
2013-09-11 09:03:00,83.7,70.3,29.26,South,173,3.1,3.1,64,0.00,,---,0.00,VWS V14.00,2013-09-11 14:03:00,
2013-09-11 09:06:00,84.3,70.3,29.26,South,173,2.7,3.1,63,0.00,,---,0.00,VWS V14.00,2013-09-11 14:06:00,
2013-09-11 09:09:00,84.3,70.3,29.26,SSE,153,3.1,3.1,63,0.00,,---,0.00,VWS V14.00,2013-09-11 14:09:00,
2013-09-11 09:15:00,85.5,71.0,29.26,South,186,4.0,4.0,62,0.00,,---,0.00,VWS V14.00,2013-09-11 14:15:00,
2013-09-11 09:17:00,85.9,70.9,29.26,South,170,4.0,4.0,61,0.00,,---,0.00,VWS V14.00,2013-09-11 14:17:00,
2013-09-11 09:24:00,86.6,71.1,29.26,South,174,4.0,4.0,60,0.00,,---,0.00,VWS V14.00,2013-09-11 14:24:00,
2013-09-11 09:27:00,86.6,71.1,29.26,SSE,165,4.0,4.0,60,0.00,,---,0.00,VWS V14.00,2013-09-11 14:27:00,
2013-09-11 09:30:00,87.3,71.2,29.26,SSE,165,4.0,4.0,59,0.00,,---,0.00,VWS V14.00,2013-09-11 14:30:00,
2013-09-11 09:32:00,87.7,70.6,29.26,SSE,165,4.0,4.0,57,0.00,,---,0.00,VWS V14.00,2013-09-11 14:32:00,
2013-09-11 09:36:00,87.7,70.6,29.26,SSE,163,4.0,4.0,57,0.00,,---,0.00,VWS V14.00,2013-09-11 14:36:00,
2013-09-11 09:42:00,88.6,70.4,29.26,SSE,162,4.0,4.0,55,0.00,,---,0.00,VWS V14.00,2013-09-11 14:42:00,
2013-09-11 09:47:00,89.5,70.7,29.26,SSE,163,3.1,4.0,54,0.00,,---,0.00,VWS V14.00,2013-09-11 14:47:00,
2013-09-11 09:48:00,89.5,70.7,29.26,SSE,163,3.1,3.1,54,0.00,,---,0.00,VWS V14.00,2013-09-11 14:48:00,
2013-09-11 09:54:00,89.8,70.4,29.26,South,176,3.6,4.0,53,0.00,,---,0.00,VWS V14.00,2013-09-11 14:54:00,
2013-09-11 10:00:00,90.9,70.9,29.26,SSW,202,2.7,4.0,52,0.00,,---,0.00,VWS V14.00,2013-09-11 15:00:00,
2013-09-11 10:02:00,90.9,70.9,29.26,SSW,202,2.7,4.0,52,0.00,,---,0.00,VWS V14.00,2013-09-11 15:02:00,
2013-09-11 10:06:00,92.4,70.4,29.26,South,172,3.6,3.6,49,0.00,,---,0.00,VWS V14.00,2013-09-11 15:06:00,
2013-09-11 10:09:00,92.4,70.4,29.26,South,172,2.7,3.6,49,0.00,,---,0.00,VWS V14.00,2013-09-11 15:09:00,
2013-09-11 10:12:00,93.6,70.4,29.26,South,172,2.7,3.6,47,0.00,,---,0.00,VWS V14.00,2013-09-11 15:12:00,
2013-09-11 10:15:00,94.0,70.1,29.26,South,172,2.7,3.6,46,0.00,,---,0.00,VWS V14.00,2013-09-11 15:15:00,
2013-09-11 10:21:00,94.7,70.1,29.26,SSE,163,2.2,2.2,45,0.00,,---,0.00,VWS V14.00,2013-09-11 15:21:00,
2013-09-11 10:27:00,95.1,69.7,29.26,South,185,0.0,2.2,44,0.00,,---,0.00,VWS V14.00,2013-09-11 15:27:00,
2013-09-11 10:30:00,95.8,69.7,29.26,South,185,0.0,2.2,43,0.00,,---,0.00,VWS V14.00,2013-09-11 15:30:00,
2013-09-11 10:36:00,96.3,69.5,29.26,South,185,0.0,0.0,42,0.00,,---,0.00,VWS V14.00,2013-09-11 15:36:00,
2013-09-11 10:39:00,96.5,69.7,29.26,South,185,0.0,0.0,42,0.00,,---,0.00,VWS V14.00,2013-09-11 15:39:00,
2013-09-11 10:45:00,96.9,70.0,29.26,South,185,0.0,0.0,42,0.00,,---,0.00,VWS V14.00,2013-09-11 15:45:00,
2013-09-11 10:47:00,96.9,69.3,29.26,South,185,0.0,0.0,41,0.00,,---,0.00,VWS V14.00,2013-09-11 15:47:00,
2013-09-11 10:51:00,96.9,69.3,29.26,South,185,0.0,0.0,41,0.00,,---,0.00,VWS V14.00,2013-09-11 15:51:00,
2013-09-11 10:57:00,97.0,69.4,29.26,South,185,0.0,0.0,41,0.00,,---,0.00,VWS V14.00,2013-09-11 15:57:00,
2013-09-11 11:00:00,97.0,69.4,29.26,South,185,0.0,0.0,41,0.00,,---,0.00,VWS V14.00,2013-09-11 16:00:00,
2013-09-11 11:03:00,97.2,69.6,29.26,South,185,0.0,0.0,41,0.00,,---,0.00,VWS V14.00,2013-09-11 16:03:00,
2013-09-11 11:06:00,97.2,69.6,29.26,South,189,0.0,0.0,41,0.00,,---,0.00,VWS V14.00,2013-09-11 16:06:00,
2013-09-11 11:12:00,97.4,69.1,29.26,South,189,0.0,0.0,40,0.00,,---,0.00,VWS V14.00,2013-09-11 16:12:00,
2013-09-11 11:15:00,97.6,69.2,29.26,South,189,0.0,0.0,40,0.00,,---,0.00,VWS V14.00,2013-09-11 16:15:00,
2013-09-11 11:17:00,97.6,69.2,29.26,South,189,0.0,0.0,40,0.00,,---,0.00,VWS V14.00,2013-09-11 16:17:00,
2013-09-11 11:18:00,97.8,69.4,29.26,South,189,0.0,0.0,40,0.00,,---,0.00,VWS V14.00,2013-09-11 16:18:00,
2013-09-11 11:24:00,97.8,69.4,29.26,South,178,0.0,0.0,40,0.00,,---,0.00,VWS V14.00,2013-09-11 16:24:00,
2013-09-11 11:30:00,97.9,69.5,29.26,SSE,168,0.0,2.7,40,0.00,,---,0.00,VWS V14.00,2013-09-11 16:30:00,
2013-09-11 11:32:00,97.9,69.5,29.26,SSE,168,0.0,2.7,40,0.00,,---,0.00,VWS V14.00,2013-09-11 16:32:00,
2013-09-11 11:33:00,97.9,69.5,29.26,SSE,168,0.0,0.0,40,0.00,,---,0.00,VWS V14.00,2013-09-11 16:33:00,
2013-09-11 11:36:00,98.1,69.7,29.26,SSE,168,0.0,0.0,40,0.00,,---,0.00,VWS V14.00,2013-09-11 16:36:00,
2013-09-11 11:42:00,98.3,69.8,29.26,South,169,2.2,2.2,40,0.00,,---,0.00,VWS V14.00,2013-09-11 16:42:00,
2013-09-11 11:45:00,98.7,70.2,29.26,SE,146,0.0,2.2,40,0.00,,---,0.00,VWS V14.00,2013-09-11 16:45:00,
2013-09-11 11:47:00,98.7,70.2,29.26,South,181,2.7,2.7,40,0.00,,---,0.00,VWS V14.00,2013-09-11 16:47:00,
2013-09-11 11:48:00,98.7,70.2,29.26,South,181,2.7,2.7,40,0.00,,---,0.00,VWS V14.00,2013-09-11 16:48:00,
2013-09-11 11:54:00,98.8,70.3,29.26,South,184,0.0,2.7,40,0.00,,---,0.00,VWS V14.00,2013-09-11 16:54:00,
2013-09-11 12:01:00,99.0,69.8,29.26,SSE,166,0.0,2.7,39,0.00,,---,0.00,VWS V14.00,2013-09-11 17:01:00,
2013-09-11 12:02:00,99.2,69.9,29.26,SSE,166,0.0,2.7,39,0.00,,---,0.00,VWS V14.00,2013-09-11 17:02:00,
2013-09-11 12:04:00,99.2,69.9,29.26,SSE,166,0.0,0.0,39,0.00,,---,0.00,VWS V14.00,2013-09-11 17:04:00,
2013-09-11 12:10:00,99.4,69.3,29.26,SW,216,0.0,2.7,38,0.00,,---,0.00,VWS V14.00,2013-09-11 17:10:00,
2013-09-11 12:13:00,99.6,69.5,29.26,SW,216,0.0,2.7,38,0.00,,---,0.00,VWS V14.00,2013-09-11 17:13:00,
2013-09-11 12:16:00,99.7,69.6,29.26,SW,223,0.0,2.7,38,0.00,,---,0.00,VWS V14.00,2013-09-11 17:16:00,
2013-09-11 12:22:00,99.9,69.0,29.26,NNE,12,0.0,0.0,37,0.00,,---,0.00,VWS V14.00,2013-09-11 17:22:00,
2013-09-11 12:28:00,100.3,69.3,29.26,ESE,112,0.0,0.0,37,0.00,,---,0.00,VWS V14.00,2013-09-11 17:28:00,
2013-09-11 12:31:00,100.5,69.5,29.26,NW,325,0.0,0.0,37,0.00,,---,0.00,VWS V14.00,2013-09-11 17:31:00,
2013-09-11 12:34:00,100.5,69.5,29.26,SSE,158,0.0,0.0,37,0.00,,---,0.00,VWS V14.00,2013-09-11 17:34:00,
2013-09-11 12:37:00,100.5,69.5,29.26,SSE,155,2.7,2.7,37,0.00,,---,0.00,VWS V14.00,2013-09-11 17:37:00,
2013-09-11 12:40:00,100.6,68.8,29.26,SSE,155,0.0,2.7,36,0.00,,---,0.00,VWS V14.00,2013-09-11 17:40:00,
2013-09-11 12:43:00,100.6,69.6,29.26,SSE,155,0.0,2.7,37,0.00,,---,0.00,VWS V14.00,2013-09-11 17:43:00,
2013-09-11 12:46:00,100.8,69.8,29.26,SSE,155,2.7,2.7,37,0.00,,---,0.00,VWS V14.00,2013-09-11 17:46:00,
2013-09-11 12:47:00,100.8,69.8,29.26,SSE,159,2.7,2.7,37,0.00,,---,0.00,VWS V14.00,2013-09-11 17:47:00,
2013-09-11 12:49:00,100.8,69.8,29.26,SSE,159,2.7,2.7,37,0.00,,---,0.00,VWS V14.00,2013-09-11 17:49:00,
2013-09-11 12:55:00,100.8,69.8,29.26,South,176,0.0,3.6,37,0.00,,---,0.00,VWS V14.00,2013-09-11 17:55:00,
2013-09-11 12:58:00,101.0,69.2,29.26,South,176,0.0,3.6,36,0.00,,---,0.00,VWS V14.00,2013-09-11 17:58:00,
2013-09-11 13:01:00,101.0,69.2,29.26,SSW,198,0.0,3.6,36,0.00,,---,0.00,VWS V14.00,2013-09-11 18:01:00,
2013-09-11 13:02:00,101.0,69.2,29.26,SSW,198,0.0,3.6,36,0.00,,---,0.00,VWS V14.00,2013-09-11 18:02:00,
2013-09-11 13:04:00,101.0,69.2,29.26,SSW,198,0.0,0.0,36,0.00,,---,0.00,VWS V14.00,2013-09-11 18:04:00,
2013-09-11 13:07:00,101.0,69.2,29.26,SSW,198,0.0,0.0,36,0.00,,---,0.00,VWS V14.00,2013-09-11 18:07:00,
2013-09-11 13:13:00,101.0,69.2,29.26,SSE,151,0.0,0.0,36,0.00,,---,0.00,VWS V14.00,2013-09-11 18:13:00,
2013-09-11 13:16:00,101.0,69.2,29.23,SSE,151,0.0,0.0,36,0.00,,---,0.00,VWS V14.00,2013-09-11 18:16:00,
2013-09-11 13:17:00,101.0,68.3,29.23,SSE,151,0.0,0.0,35,0.00,,---,0.00,VWS V14.00,2013-09-11 18:17:00,
2013-09-11 13:22:00,101.0,68.3,29.23,SE,139,3.1,3.6,35,0.00,,---,0.00,VWS V14.00,2013-09-11 18:22:00,
2013-09-11 13:25:00,101.0,68.3,29.23,South,172,0.0,3.6,35,0.00,,---,0.00,VWS V14.00,2013-09-11 18:25:00,
2013-09-11 13:31:00,101.0,68.3,29.23,SSE,156,4.0,4.0,35,0.00,,---,0.00,VWS V14.00,2013-09-11 18:31:00,
2013-09-11 13:32:00,100.8,68.2,29.23,SSE,156,4.0,4.0,35,0.00,,---,0.00,VWS V14.00,2013-09-11 18:32:00,
2013-09-11 13:34:00,100.8,68.2,29.23,SSE,150,0.0,4.0,35,0.00,,---,0.00,VWS V14.00,2013-09-11 18:34:00,
2013-09-11 13:40:00,100.8,68.2,29.23,SSE,149,2.2,4.0,35,0.00,,---,0.00,VWS V14.00,2013-09-11 18:40:00,
2013-09-11 13:43:00,100.8,68.2,29.23,SE,136,2.2,4.0,35,0.00,,---,0.00,VWS V14.00,2013-09-11 18:43:00,
2013-09-11 13:47:00,100.8,68.2,29.23,SSE,156,4.0,4.0,35,0.00,,---,0.00,VWS V14.00,2013-09-11 18:47:00,
2013-09-11 13:49:00,100.8,68.2,29.23,SSE,156,4.0,4.0,35,0.00,,---,0.00,VWS V14.00,2013-09-11 18:49:00,
2013-09-11 13:55:00,100.8,68.2,29.23,SSE,168,2.7,4.0,35,0.00,,---,0.00,VWS V14.00,2013-09-11 18:55:00,
2013-09-11 13:58:00,100.8,68.2,29.23,South,189,2.2,4.0,35,0.00,,---,0.00,VWS V14.00,2013-09-11 18:58:00,
2013-09-11 14:02:00,100.6,67.2,29.23,South,178,2.2,4.0,34,0.00,,---,0.00,VWS V14.00,2013-09-11 19:02:00,
2013-09-11 14:07:00,100.5,67.0,29.23,SSE,167,3.1,3.1,34,0.00,,---,0.00,VWS V14.00,2013-09-11 19:07:00,
2013-09-11 14:10:00,100.5,67.0,29.23,SSE,167,2.7,3.1,34,0.00,,---,0.00,VWS V14.00,2013-09-11 19:10:00,
2013-09-11 14:17:00,100.5,67.0,29.21,SSE,167,0.0,3.1,34,0.00,,---,0.00,VWS V14.00,2013-09-11 19:17:00,
2013-09-11 14:19:00,100.5,67.0,29.21,SSE,167,0.0,0.0,34,0.00,,---,0.00,VWS V14.00,2013-09-11 19:19:00,
2013-09-11 14:22:00,100.3,66.9,29.21,SSE,162,2.7,3.6,34,0.00,,---,0.00,VWS V14.00,2013-09-11 19:22:00,
2013-09-11 14:25:00,100.3,66.9,29.21,SSE,162,2.7,3.6,34,0.00,,---,0.00,VWS V14.00,2013-09-11 19:25:00,
2013-09-11 14:31:00,100.3,66.9,29.21,SSE,162,3.6,3.6,34,0.00,,---,0.00,VWS V14.00,2013-09-11 19:31:00,
2013-09-11 14:32:00,100.3,66.9,29.21,SSE,162,3.6,3.6,34,0.00,,---,0.00,VWS V14.00,2013-09-11 19:32:00,
2013-09-11 14:34:00,100.3,66.9,29.21,South,175,3.6,3.6,34,0.00,,---,0.00,VWS V14.00,2013-09-11 19:34:00,
2013-09-11 14:40:00,100.3,66.0,29.21,SSW,195,3.1,3.6,33,0.00,,---,0.00,VWS V14.00,2013-09-11 19:40:00,
2013-09-11 14:43:00,100.3,66.0,29.21,South,190,2.7,3.6,33,0.00,,---,0.00,VWS V14.00,2013-09-11 19:43:00,
2013-09-11 14:49:00,100.1,65.8,29.21,South,177,3.1,3.1,33,0.00,,---,0.00,VWS V14.00,2013-09-11 19:49:00,
2013-09-11 14:52:00,100.1,65.8,29.21,South,185,3.1,3.1,33,0.00,,---,0.00,VWS V14.00,2013-09-11 19:52:00,
2013-09-11 14:55:00,100.1,65.8,29.21,South,169,3.1,3.1,33,0.00,,---,0.00,VWS V14.00,2013-09-11 19:55:00,
2013-09-11 14:58:00,100.1,65.0,29.21,SSE,167,0.0,3.1,32,0.00,,---,0.00,VWS V14.00,2013-09-11 19:58:00,
2013-09-11 15:02:00,100.3,65.1,29.21,South,173,0.0,3.1,32,0.00,,---,0.00,VWS V14.00,2013-09-11 20:02:00,
2013-09-11 15:04:00,100.3,65.1,29.21,South,173,0.0,0.0,32,0.00,,---,0.00,VWS V14.00,2013-09-11 20:04:00,
2013-09-11 15:10:00,100.3,65.1,29.21,South,189,2.7,3.6,32,0.00,,---,0.00,VWS V14.00,2013-09-11 20:10:00,
2013-09-11 15:16:00,100.3,65.1,29.21,SSE,167,3.6,3.6,32,0.00,,---,0.00,VWS V14.00,2013-09-11 20:16:00,
2013-09-11 15:22:00,100.3,65.1,29.21,SSE,163,2.7,4.9,32,0.00,,---,0.00,VWS V14.00,2013-09-11 20:22:00,
2013-09-11 15:28:00,100.3,65.1,29.21,SSE,152,3.1,4.9,32,0.00,,---,0.00,VWS V14.00,2013-09-11 20:28:00,
2013-09-11 15:31:00,100.3,65.1,29.21,SSE,168,3.1,4.9,32,0.00,,---,0.00,VWS V14.00,2013-09-11 20:31:00,
2013-09-11 15:34:00,100.3,65.1,29.21,South,175,3.1,3.1,32,0.00,,---,0.00,VWS V14.00,2013-09-11 20:34:00,
2013-09-11 15:37:00,100.3,65.1,29.21,South,175,3.1,3.6,32,0.00,,---,0.00,VWS V14.00,2013-09-11 20:37:00,
2013-09-11 15:43:00,100.3,65.1,29.21,South,175,2.7,3.6,32,0.00,,---,0.00,VWS V14.00,2013-09-11 20:43:00,
2013-09-11 15:46:00,100.1,65.0,29.18,South,175,3.6,3.6,32,0.00,,---,0.00,VWS V14.00,2013-09-11 20:46:00,
2013-09-11 15:47:00,100.1,65.0,29.18,South,175,3.6,3.6,32,0.00,,---,0.00,VWS V14.00,2013-09-11 20:47:00,
2013-09-11 15:49:00,100.1,65.0,29.18,South,175,2.7,3.6,32,0.00,,---,0.00,VWS V14.00,2013-09-11 20:49:00,
2013-09-11 15:52:00,99.9,64.8,29.18,South,175,2.7,3.6,32,0.00,,---,0.00,VWS V14.00,2013-09-11 20:52:00,
2013-09-11 15:55:00,99.9,64.8,29.18,South,175,2.7,3.6,32,0.00,,---,0.00,VWS V14.00,2013-09-11 20:55:00,
2013-09-11 15:58:00,99.7,64.7,29.18,SSE,166,0.0,3.6,32,0.00,,---,0.00,VWS V14.00,2013-09-11 20:58:00,
2013-09-11 16:02:00,99.7,64.7,29.18,SSE,166,0.0,3.6,32,0.00,,---,0.00,VWS V14.00,2013-09-11 21:02:00,
2013-09-11 16:07:00,99.7,64.7,29.18,South,180,3.1,3.1,32,0.00,,---,0.00,VWS V14.00,2013-09-11 21:07:00,
2013-09-11 16:13:00,99.7,64.7,29.18,SSE,166,3.6,3.6,32,0.00,,---,0.00,VWS V14.00,2013-09-11 21:13:00,
2013-09-11 16:16:00,99.7,64.7,29.18,SSE,166,3.1,3.6,32,0.00,,---,0.00,VWS V14.00,2013-09-11 21:16:00,
2013-09-11 16:17:00,99.7,64.7,29.18,SSE,166,3.1,3.6,32,0.00,,---,0.00,VWS V14.00,2013-09-11 21:17:00,
2013-09-11 16:22:00,99.6,65.4,29.18,South,190,3.1,3.6,33,0.00,,---,0.00,VWS V14.00,2013-09-11 21:22:00,
2013-09-11 16:25:00,99.4,65.2,29.18,SSE,159,2.2,3.6,33,0.00,,---,0.00,VWS V14.00,2013-09-11 21:25:00,
2013-09-11 16:28:00,99.4,65.2,29.18,SSE,159,2.7,3.6,33,0.00,,---,0.00,VWS V14.00,2013-09-11 21:28:00,
2013-09-11 16:32:00,99.2,64.2,29.18,SSE,159,2.7,3.6,32,0.00,,---,0.00,VWS V14.00,2013-09-11 21:32:00,
2013-09-11 16:38:00,99.2,64.2,29.18,SSE,159,2.7,2.7,32,0.00,,---,0.00,VWS V14.00,2013-09-11 21:38:00,
2013-09-11 16:44:00,99.0,64.9,29.18,SSE,160,0.0,2.7,33,0.00,,---,0.00,VWS V14.00,2013-09-11 21:44:00,
2013-09-11 16:47:00,99.0,64.9,29.18,SSE,160,0.0,2.7,33,0.00,,---,0.00,VWS V14.00,2013-09-11 21:47:00,
2013-09-11 16:53:00,98.8,65.6,29.18,SSE,166,4.0,4.0,34,0.00,,---,0.00,VWS V14.00,2013-09-11 21:53:00,
2013-09-11 16:56:00,98.5,65.3,29.18,SSE,149,4.0,4.0,34,0.00,,---,0.00,VWS V14.00,2013-09-11 21:56:00,
2013-09-11 16:59:00,98.3,65.1,29.18,SSE,164,4.0,4.0,34,0.00,,---,0.00,VWS V14.00,2013-09-11 21:59:00,
2013-09-11 17:02:00,98.3,65.1,29.18,SSE,164,4.0,4.0,34,0.00,,---,0.00,VWS V14.00,2013-09-11 22:02:00,
2013-09-11 17:05:00,97.9,64.8,29.18,SSE,166,4.0,4.0,34,0.00,,---,0.00,VWS V14.00,2013-09-11 22:05:00,
2013-09-11 17:08:00,97.6,64.5,29.18,SSE,166,4.0,4.0,34,0.00,,---,0.00,VWS V14.00,2013-09-11 22:08:00,
2013-09-11 17:14:00,97.2,65.0,29.18,SSE,156,3.6,4.0,35,0.00,,---,0.00,VWS V14.00,2013-09-11 22:14:00,
2013-09-11 17:17:00,96.9,64.7,29.21,SSE,156,3.6,4.0,35,0.00,,---,0.00,VWS V14.00,2013-09-11 22:17:00,
2013-09-11 17:23:00,96.3,64.2,29.21,South,171,3.6,3.6,35,0.00,,---,0.00,VWS V14.00,2013-09-11 22:23:00,
2013-09-11 17:26:00,96.0,63.9,29.21,SSE,164,5.4,5.4,35,0.00,,---,0.00,VWS V14.00,2013-09-11 22:26:00,
2013-09-11 17:29:00,95.8,64.6,29.21,SSE,164,5.4,5.4,36,0.00,,---,0.00,VWS V14.00,2013-09-11 22:29:00,
2013-09-11 17:32:00,95.4,64.2,29.21,ESE,123,0.0,5.4,36,0.00,,---,0.00,VWS V14.00,2013-09-11 22:32:00,
2013-09-11 17:38:00,95.1,63.9,29.21,South,189,0.0,2.2,36,0.00,,---,0.00,VWS V14.00,2013-09-11 22:38:00,
2013-09-11 17:44:00,94.7,63.6,29.21,SSE,163,3.6,3.6,36,0.00,,---,0.00,VWS V14.00,2013-09-11 22:44:00,
2013-09-11 17:47:00,94.2,63.9,29.21,SSE,159,3.6,3.6,37,0.00,,---,0.00,VWS V14.00,2013-09-11 22:47:00,
2013-09-11 17:50:00,93.8,63.6,29.21,SSE,161,2.7,3.6,37,0.00,,---,0.00,VWS V14.00,2013-09-11 22:50:00,
2013-09-11 17:56:00,93.4,64.1,29.21,SE,143,3.6,4.0,38,0.00,,---,0.00,VWS V14.00,2013-09-11 22:56:00,
2013-09-11 17:59:00,93.3,63.9,29.21,SSE,153,3.6,4.0,38,0.00,,---,0.00,VWS V14.00,2013-09-11 22:59:00,
2013-09-11 18:02:00,93.1,63.7,29.21,SSE,153,3.6,4.0,38,0.00,,---,0.00,VWS V14.00,2013-09-11 23:02:00,
2013-09-11 18:08:00,92.5,63.3,29.21,SSE,159,4.5,5.8,38,0.00,,---,0.00,VWS V14.00,2013-09-11 23:08:00,
2013-09-11 18:14:00,92.2,62.9,29.21,South,185,5.8,5.8,38,0.00,,---,0.00,VWS V14.00,2013-09-11 23:14:00,
2013-09-11 18:20:00,91.8,63.4,29.21,SSE,153,3.6,6.3,39,0.00,,---,0.00,VWS V14.00,2013-09-11 23:20:00,
2013-09-11 18:23:00,91.5,63.8,29.21,SSE,154,5.4,6.3,40,0.00,,---,0.00,VWS V14.00,2013-09-11 23:23:00,
2013-09-11 18:26:00,91.5,63.8,29.21,SSE,156,5.8,6.3,40,0.00,,---,0.00,VWS V14.00,2013-09-11 23:26:00,
2013-09-11 18:32:00,90.9,64.0,29.21,SSE,148,5.8,6.3,41,0.00,,---,0.00,VWS V14.00,2013-09-11 23:32:00,
2013-09-11 18:35:00,90.7,63.8,29.21,SSE,155,7.6,7.6,41,0.00,,---,0.00,VWS V14.00,2013-09-11 23:35:00,
2013-09-11 18:38:00,90.7,64.5,29.21,SSE,155,7.6,7.6,42,0.00,,---,0.00,VWS V14.00,2013-09-11 23:38:00,
2013-09-11 18:41:00,90.6,64.3,29.21,SSE,167,4.9,8.3,42,0.00,,---,0.00,VWS V14.00,2013-09-11 23:41:00,
2013-09-11 18:44:00,90.4,64.2,29.21,SSE,167,4.9,8.3,42,0.00,,---,0.00,VWS V14.00,2013-09-11 23:44:00,
2013-09-11 18:47:00,90.2,64.0,29.21,SE,139,4.0,8.3,42,0.00,,---,0.00,VWS V14.00,2013-09-11 23:47:00,
2013-09-11 18:50:00,90.0,64.5,29.21,South,172,4.9,4.9,43,0.00,,---,0.00,VWS V14.00,2013-09-11 23:50:00,
2013-09-11 18:53:00,89.8,64.4,29.21,SSE,155,4.0,4.9,43,0.00,,---,0.00,VWS V14.00,2013-09-11 23:53:00,
2013-09-11 18:59:00,89.7,64.9,29.21,SSE,158,4.0,4.9,44,0.00,,---,0.00,VWS V14.00,2013-09-11 23:59:00,
2013-09-11 19:02:00,89.3,64.6,29.21,South,174,4.0,4.9,44,0.00,,---,0.00,VWS V14.00,2013-09-12 00:02:00,
2013-09-11 19:05:00,89.1,64.4,29.21,South,191,4.9,4.9,44,0.00,,---,0.00,VWS V14.00,2013-09-12 00:05:00,
2013-09-11 19:08:00,89.1,64.4,29.21,SE,136,6.3,6.3,44,0.00,,---,0.00,VWS V14.00,2013-09-12 00:08:00,
2013-09-11 19:14:00,88.8,64.7,29.21,SE,143,3.1,6.3,45,0.00,,---,0.00,VWS V14.00,2013-09-12 00:14:00,
2013-09-11 19:17:00,88.6,65.2,29.21,South,169,3.1,6.3,46,0.00,,---,0.00,VWS V14.00,2013-09-12 00:17:00,
2013-09-11 19:20:00,88.4,65.0,29.21,SSE,164,3.1,4.9,46,0.00,,---,0.00,VWS V14.00,2013-09-12 00:20:00,
2013-09-11 19:23:00,88.2,65.5,29.18,SSE,164,3.1,4.9,47,0.00,,---,0.00,VWS V14.00,2013-09-12 00:23:00,
2013-09-11 19:26:00,88.0,65.3,29.18,South,171,6.3,6.3,47,0.00,,---,0.00,VWS V14.00,2013-09-12 00:26:00,
2013-09-11 19:29:00,87.7,65.0,29.18,SSE,163,2.7,6.3,47,0.00,,---,0.00,VWS V14.00,2013-09-12 00:29:00,
2013-09-11 19:32:00,87.5,65.4,29.18,SSE,163,0.0,6.3,48,0.00,,---,0.00,VWS V14.00,2013-09-12 00:32:00,
2013-09-11 19:35:00,87.3,65.2,29.18,SSE,163,0.0,0.0,48,0.00,,---,0.00,VWS V14.00,2013-09-12 00:35:00,
2013-09-11 19:41:00,87.0,65.5,29.18,SSE,160,3.6,3.6,49,0.00,,---,0.00,VWS V14.00,2013-09-12 00:41:00,
2013-09-11 19:44:00,86.8,65.3,29.18,SSE,160,3.6,3.6,49,0.00,,---,0.00,VWS V14.00,2013-09-12 00:44:00,
2013-09-11 19:47:00,86.6,65.2,29.18,SSE,165,2.2,3.6,49,0.00,,---,0.00,VWS V14.00,2013-09-12 00:47:00,
2013-09-11 19:50:00,86.6,65.2,29.18,South,172,0.0,2.2,49,0.00,,---,0.00,VWS V14.00,2013-09-12 00:50:00,
2013-09-11 19:53:00,86.2,65.4,29.18,South,178,0.0,2.2,50,0.00,,---,0.00,VWS V14.00,2013-09-12 00:53:00,
2013-09-11 19:59:00,85.9,65.7,29.21,South,177,0.0,2.2,51,0.00,,---,0.00,VWS V14.00,2013-09-12 00:59:00,
2013-09-11 20:02:00,85.7,65.5,29.21,South,177,0.0,0.0,51,0.00,,---,0.00,VWS V14.00,2013-09-12 01:02:00,
2013-09-11 20:05:00,85.5,65.9,29.21,South,177,0.0,0.0,52,0.00,,---,0.00,VWS V14.00,2013-09-12 01:05:00,
2013-09-11 20:08:00,85.3,65.7,29.21,South,177,0.0,0.0,52,0.00,,---,0.00,VWS V14.00,2013-09-12 01:08:00,
2013-09-11 20:11:00,85.3,65.7,29.21,South,177,0.0,0.0,52,0.00,,---,0.00,VWS V14.00,2013-09-12 01:11:00,
2013-09-11 20:17:00,85.2,65.6,29.21,South,180,2.7,2.7,52,0.00,,---,0.00,VWS V14.00,2013-09-12 01:17:00,
2013-09-11 20:20:00,85.2,65.6,29.21,South,180,2.7,2.7,52,0.00,,---,0.00,VWS V14.00,2013-09-12 01:20:00,
2013-09-11 20:23:00,85.2,65.6,29.21,ESE,123,0.0,2.7,52,0.00,,---,0.00,VWS V14.00,2013-09-12 01:23:00,
2013-09-11 20:26:00,85.2,65.6,29.21,SE,126,0.0,2.7,52,0.00,,---,0.00,VWS V14.00,2013-09-12 01:26:00,
2013-09-11 20:32:00,85.2,65.6,29.21,South,188,0.0,2.7,52,0.00,,---,0.00,VWS V14.00,2013-09-12 01:32:00,
2013-09-11 20:35:00,85.2,65.6,29.21,SSW,209,0.0,0.0,52,0.00,,---,0.00,VWS V14.00,2013-09-12 01:35:00,
2013-09-11 20:41:00,85.2,65.6,29.21,SSW,209,0.0,0.0,52,0.00,,---,0.00,VWS V14.00,2013-09-12 01:41:00,
2013-09-11 20:47:00,85.2,65.6,29.21,SSW,209,0.0,0.0,52,0.00,,---,0.00,VWS V14.00,2013-09-12 01:47:00,
2013-09-11 20:53:00,85.2,65.6,29.21,SSW,209,0.0,0.0,52,0.00,,---,0.00,VWS V14.00,2013-09-12 01:53:00,
2013-09-11 20:56:00,85.2,65.6,29.21,SSW,209,0.0,0.0,52,0.00,,---,0.00,VWS V14.00,2013-09-12 01:56:00,
2013-09-11 21:02:00,85.2,65.6,29.21,SSW,209,0.0,0.0,52,0.00,,---,0.00,VWS V14.00,2013-09-12 02:02:00,
2013-09-11 21:05:00,85.2,65.6,29.21,SSW,209,0.0,0.0,52,0.00,,---,0.00,VWS V14.00,2013-09-12 02:05:00,
2013-09-11 21:09:00,85.2,65.6,29.21,SSW,209,0.0,0.0,52,0.00,,---,0.00,VWS V14.00,2013-09-12 02:09:00,
2013-09-11 21:15:00,85.2,65.6,29.21,SSW,203,0.0,0.0,52,0.00,,---,0.00,VWS V14.00,2013-09-12 02:15:00,
2013-09-11 21:17:00,85.2,65.6,29.21,SSW,203,0.0,0.0,52,0.00,,---,0.00,VWS V14.00,2013-09-12 02:17:00,
2013-09-11 21:18:00,85.2,65.6,29.21,SSW,203,0.0,0.0,52,0.00,,---,0.00,VWS V14.00,2013-09-12 02:18:00,
2013-09-11 21:21:00,85.2,65.6,29.21,SSW,203,0.0,0.0,52,0.00,,---,0.00,VWS V14.00,2013-09-12 02:21:00,
2013-09-11 21:27:00,85.2,65.6,29.21,SSW,203,0.0,0.0,52,0.00,,---,0.00,VWS V14.00,2013-09-12 02:27:00,
2013-09-11 21:30:00,85.2,65.6,29.21,SSW,196,0.0,0.0,52,0.00,,---,0.00,VWS V14.00,2013-09-12 02:30:00,
2013-09-11 21:32:00,85.2,65.6,29.23,ESE,123,2.2,2.2,52,0.00,,---,0.00,VWS V14.00,2013-09-12 02:32:00,
2013-09-11 21:33:00,85.2,65.6,29.23,ESE,123,2.2,2.2,52,0.00,,---,0.00,VWS V14.00,2013-09-12 02:33:00,
2013-09-11 21:36:00,85.2,65.6,29.23,SSE,165,2.7,3.1,52,0.00,,---,0.00,VWS V14.00,2013-09-12 02:36:00,
2013-09-11 21:39:00,85.2,65.6,29.23,SSE,163,3.1,3.1,52,0.00,,---,0.00,VWS V14.00,2013-09-12 02:39:00,
2013-09-11 21:45:00,85.2,65.6,29.23,SSE,163,0.0,3.1,52,0.00,,---,0.00,VWS V14.00,2013-09-12 02:45:00,
2013-09-11 21:47:00,85.2,65.6,29.23,SSE,163,0.0,3.1,52,0.00,,---,0.00,VWS V14.00,2013-09-12 02:47:00,
2013-09-11 21:54:00,85.2,65.6,29.23,SSE,163,0.0,0.0,52,0.00,,---,0.00,VWS V14.00,2013-09-12 02:54:00,
2013-09-11 21:57:00,85.2,65.6,29.23,SSE,163,0.0,0.0,52,0.00,,---,0.00,VWS V14.00,2013-09-12 02:57:00,
2013-09-11 22:00:00,85.2,65.6,29.23,SSE,163,0.0,0.0,52,0.00,,---,0.00,VWS V14.00,2013-09-12 03:00:00,
2013-09-11 22:02:00,85.2,65.6,29.23,SSE,163,0.0,0.0,52,0.00,,---,0.00,VWS V14.00,2013-09-12 03:02:00,
2013-09-11 22:03:00,85.2,65.6,29.23,SSE,163,0.0,0.0,52,0.00,,---,0.00,VWS V14.00,2013-09-12 03:03:00,
2013-09-11 22:06:00,85.2,65.6,29.23,SSE,163,0.0,0.0,52,0.00,,---,0.00,VWS V14.00,2013-09-12 03:06:00,
2013-09-11 22:09:00,85.2,65.6,29.23,SSE,163,0.0,0.0,52,0.00,,---,0.00,VWS V14.00,2013-09-12 03:09:00,
2013-09-11 22:12:00,85.2,65.6,29.23,SSE,163,0.0,0.0,52,0.00,,---,0.00,VWS V14.00,2013-09-12 03:12:00,
2013-09-11 22:17:00,85.2,65.6,29.23,SSE,163,0.0,0.0,52,0.00,,---,0.00,VWS V14.00,2013-09-12 03:17:00,
2013-09-11 22:18:00,85.2,65.6,29.23,SSE,163,0.0,0.0,52,0.00,,---,0.00,VWS V14.00,2013-09-12 03:18:00,
2013-09-11 22:24:00,85.2,65.6,29.23,SSE,163,0.0,0.0,52,0.00,,---,0.00,VWS V14.00,2013-09-12 03:24:00,
2013-09-11 22:27:00,85.2,65.6,29.23,SSE,163,0.0,0.0,52,0.00,,---,0.00,VWS V14.00,2013-09-12 03:27:00,
2013-09-11 22:32:00,85.2,65.6,29.23,SSE,163,0.0,0.0,52,0.00,,---,0.00,VWS V14.00,2013-09-12 03:32:00,
2013-09-11 22:33:00,85.2,65.6,29.23,SSE,163,0.0,0.0,52,0.00,,---,0.00,VWS V14.00,2013-09-12 03:33:00,
2013-09-11 22:36:00,85.2,65.6,29.23,SSE,163,0.0,0.0,52,0.00,,---,0.00,VWS V14.00,2013-09-12 03:36:00,
2013-09-11 22:39:00,85.2,65.6,29.23,SSE,163,0.0,0.0,52,0.00,,---,0.00,VWS V14.00,2013-09-12 03:39:00,
2013-09-11 22:42:00,85.2,65.6,29.23,SSE,163,0.0,0.0,52,0.00,,---,0.00,VWS V14.00,2013-09-12 03:42:00,
2013-09-11 22:45:00,85.2,65.6,29.23,SSE,163,0.0,0.0,52,0.00,,---,0.00,VWS V14.00,2013-09-12 03:45:00,
2013-09-11 22:47:00,85.2,65.6,29.23,SSE,163,0.0,0.0,52,0.00,,---,0.00,VWS V14.00,2013-09-12 03:47:00,
2013-09-11 22:51:00,85.2,65.6,29.23,SSE,163,0.0,0.0,52,0.00,,---,0.00,VWS V14.00,2013-09-12 03:51:00,
2013-09-11 22:54:00,85.2,65.6,29.23,SSE,163,0.0,0.0,52,0.00,,---,0.00,VWS V14.00,2013-09-12 03:54:00,
2013-09-11 22:57:00,85.2,65.6,29.23,SSE,163,0.0,0.0,52,0.00,,---,0.00,VWS V14.00,2013-09-12 03:57:00,
2013-09-11 23:00:00,85.2,65.6,29.21,SSE,163,0.0,0.0,52,0.00,,---,0.00,VWS V14.00,2013-09-12 04:00:00,
2013-09-11 23:02:00,85.2,65.6,29.21,SSE,163,0.0,0.0,52,0.00,,---,0.00,VWS V14.00,2013-09-12 04:02:00,
2013-09-11 23:03:00,85.2,65.6,29.21,SSE,163,0.0,0.0,52,0.00,,---,0.00,VWS V14.00,2013-09-12 04:03:00,
2013-09-11 23:09:00,85.2,65.6,29.21,SSE,163,0.0,0.0,52,0.00,,---,0.00,VWS V14.00,2013-09-12 04:09:00,
2013-09-11 23:12:00,81.9,66.7,29.21,SSE,163,0.0,0.0,60,0.00,,---,0.00,VWS V14.00,2013-09-12 04:12:00,
2013-09-11 23:15:00,81.9,66.7,29.21,SSE,163,0.0,0.0,60,0.00,,---,0.00,VWS V14.00,2013-09-12 04:15:00,
2013-09-11 23:18:00,81.9,66.7,29.21,SSE,163,0.0,0.0,60,0.00,,---,0.00,VWS V14.00,2013-09-12 04:18:00,
2013-09-11 23:21:00,81.6,66.8,29.21,SSE,163,0.0,0.0,61,0.00,,---,0.00,VWS V14.00,2013-09-12 04:21:00,
2013-09-11 23:27:00,81.6,66.8,29.21,SSE,163,0.0,0.0,61,0.00,,---,0.00,VWS V14.00,2013-09-12 04:27:00,
2013-09-11 23:30:00,81.6,66.8,29.21,SSE,163,0.0,0.0,61,0.00,,---,0.00,VWS V14.00,2013-09-12 04:30:00,
2013-09-11 23:32:00,81.6,66.8,29.21,SSE,163,0.0,0.0,61,0.00,,---,0.00,VWS V14.00,2013-09-12 04:32:00,
2013-09-11 23:36:00,81.6,66.8,29.21,SSE,163,0.0,0.0,61,0.00,,---,0.00,VWS V14.00,2013-09-12 04:36:00,
2013-09-11 23:42:00,81.6,66.8,29.21,SSE,163,0.0,0.0,61,0.00,,---,0.00,VWS V14.00,2013-09-12 04:42:00,
2013-09-11 23:48:00,81.6,66.8,29.21,SSE,163,0.0,0.0,61,0.00,,---,0.00,VWS V14.00,2013-09-12 04:48:00,
2013-09-11 23:51:00,81.6,66.8,29.21,SSE,163,0.0,0.0,61,0.00,,---,0.00,VWS V14.00,2013-09-12 04:51:00,
2013-09-11 23:54:00,80.8,67.5,29.21,SSE,163,0.0,0.0,64,0.00,,---,0.00,VWS V14.00,2013-09-12 04:54:00,